Regional Weather Roundup
Issued by NWS Bismarck, ND

Home | Current Version | Previous Version | Text Only | Print | Product List | Glossary On
Versions: 1 2 3 4 5 6 7 8 9 10 11 12 13 14 15 16 17 18 19 20 21 22 23 24 25 26 27 28 29 30 31 32 33 34 35 36 37 38 39 40 41 42 43 44 45 46 47 48 49 50
000
ASUS43 KBIS 301710
RWRBIS

NWR BROADCAST TEXT
NATIONAL WEATHER SERVICE BISMARCK ND
1200 PM CDT TUE JUN 30 2015

NOTE: "FAIR" INDICATES FEW OR NO CLOUDS BELOW 12,000 FEET WITH NO
SIGNIFICANT WEATHER AND/OR OBSTRUCTIONS TO VISIBILITY.


CITY           SKY/WX    TMP DP  RH WIND       PRES   REMARKS
WILLISTON      CLOUDY    80  53  39 E13       29.91F
MINOT          CLOUDY    67  63  87 SE3       29.93F FOG
MINOT AFB      CLOUDY    67  67 100 SE6       29.91F
BISMARCK       CLOUDY    68  65  90 E8        29.94F
DICKINSON      CLOUDY    70  63  78 E9        29.93S
GARRISON         N/A     68  65  90 S6        29.93F
HETTINGER ARPT CLOUDY    71  62  73 E13       29.94F
JAMESTOWN      CLOUDY    69  60  73 SE6       29.95S
BEACH          FAIR      72  66  83 SE17G23   29.91F
CROSBY         PTSUNNY   64  64 100 NE7       29.96R FOG
HARVEY         FAIR      66  63  88 S5        29.96S
HAZEN          PTSUNNY   70  64  83 SE7       29.94S
LINTON         PTSUNNY   66  66 100 E5        29.95S
MANDAN         FAIR      66  64  94 SE8       29.96S
OAKES            N/A     68  66  94 E7        29.94S
STANLEY        PTSUNNY   70  64  83 CALM      29.95S
$$

CITY           SKY/WX    TMP DP  RH WIND       PRES   REMARKS
GRAND FORKS    CLOUDY    71  57  61 CALM      29.95S
GRAND FORKS AF CLOUDY    70  61  72 SE2       29.95F
DEVILS LAKE    CLOUDY    66  59  77 SE7       29.94F
FARGO          PTSUNNY   73  56  54 SE7       29.94F
CANDO          FAIR      64  63  94 SE3       29.96S
CAVALIER       FAIR      68  63  83 CALM      29.95S
GRAFTON        FAIR      68  63  83 SE5       29.96F
LANGDON        FAIR      70  61  73 SE5       29.97S
ROLLA          FAIR      66  61  82 SE6       29.98S
WALHALLA       FAIR      66  66 100 MISG      29.96S
$$

CITY           SKY/WX    TMP DP  RH WIND       PRES   REMARKS
ABERDEEN       CLOUDY    73  65  75 SW5       29.93S
MOBRIDGE       CLOUDY    73  68  84 S8        29.90F
BUFFALO          N/A     79  64  60 SE10      29.86S
RAPID CITY     CLOUDY    77  64  64 SW3       29.94S
SIDNEY         MOSUNNY   81  63  54 E15       29.88F
WOLF POINT     MOSUNNY   85  61  44 SE12      29.86F HAZE
GLENDIVE       CLOUDY    77  63  61 SE7       29.90R
MILES CITY     PTSUNNY   82  60  47 NW5       29.88F HAZE
BAKER          CLOUDY    73  64  73 SE13      29.92F
$$

CITY           SKY/WX    TMP DP  RH WIND       PRES   REMARKS
BILLINGS       PTSUNNY   80  60  50 SW8       30.01S
GREAT FALLS    MOSUNNY   85  51  31 W18G26    29.99F
REGINA         LGT RAIN  63  61  94 VRB2      29.96R VSB 5/8
ESTEVAN        LGT RAIN  64  63  94 VRB2      29.95S SMOKE
$$




USA.gov is the U.S. government's official web portal to all federal, state and local government web resources and services.